Location: G�migny
(47.9646°N, 1.6950°E)
Time: 01:59:29
(UTC+00:00)

STARLINK-80 - Pass Details

Date: 23 October 2019
Orbit: 494 x 496 km, 53.0° (Epoch: 21 November)

Event Time Altitude Azimuth Distance (km) Brightness Sun altitude
Rises 18:19:49 0° 296° (WNW) 2,586 8.3 -15.6°
Reaches altitude 10° 18:22:01 10° 298° (WNW) 1,700 7.1 -15.9°
Maximum altitude 18:25:51 72° 24° (NNE) 526 3.4 -16.6°
Enters shadow 18:27:10 38° 98° (E) 765 3.8 -16.8°
